Stations météo

réclame
Mon MeteoGroup
De Bilt, Pays-Bas (6260): Température de l'air & dewpoint: 18.10.2018 07:00:00 - 24.10.2018 07:00:00 (CEST)De Bilt, Pays-Bas (6260): Température de l'air 5cm & Température de l'air -5cm: 18.10.2018 07:00:00 - 24.10.2018 07:00:00 (CEST)De Bilt, Pays-Bas (6260): Température de l'air -20cm & Température de l'air -100cm: 18.10.2018 07:00:00 - 24.10.2018 07:00:00 (CEST)De Bilt, Pays-Bas (6260): Vitesse du vent & gusts: 18.10.2018 07:00:00 - 24.10.2018 07:00:00 (CEST)De Bilt, Pays-Bas (6260): Direction du vent: 18.10.2018 07:00:00 - 24.10.2018 07:00:00 (CEST)De Bilt, Pays-Bas (6260): reduced air pressure: 18.10.2018 07:00:00 - 24.10.2018 07:00:00 (CEST)De Bilt, Pays-Bas (6260): visibility: 18.10.2018 07:00:00 - 24.10.2018 07:00:00 (CEST)De Bilt, Pays-Bas (6260): Quantités de précipitations: 18.10.2018 07:00:00 - 24.10.2018 07:00:00 (CEST)
Date & Time tt [°C] td [°C] tt 5cm [°C] tt -5cm [°C] tt -20cm [°C] tt -100cm [°C] ff [km/h] ff [knt] fx [km/h] fx [knt] dd ppp [hPa] vv [km] rr [mm]
24.10.2018 07:00:00 14,5 12,7 14,4 13,2 13,3 14,2 17 9 - - NW 1022,5 7 -
24.10.2018 06:00:00 14,5 12,6 14,3 13,2 13,3 14,2 14 8 36 19 WNW 1022,1 15 0,0
24.10.2018 05:00:00 14,6 12,7 14,4 13,1 13,2 14,2 18 10 32 18 NW 1022,2 10 0,0
24.10.2018 04:00:00 15,0 12,1 14,8 13,1 13,2 14,2 14 8 36 19 WNW 1022,0 18 0,0
24.10.2018 03:00:00 14,7 11,8 14,5 13,0 13,2 14,2 14 8 36 19 WNW 1022,1 17 0,0
24.10.2018 02:00:00 14,5 11,7 14,3 13,0 13,2 14,2 18 10 36 19 WNW 1022,5 16 0,0
24.10.2018 01:00:00 14,4 11,5 14,2 13,0 13,2 14,2 22 12 43 23 W 1022,5 15 0,0
24.10.2018 00:00:00 14,5 11,6 14,4 12,9 13,1 14,2 18 10 36 19 W 1022,6 15 0,0
23.10.2018 23:00:00 14,4 11,4 14,3 12,9 13,1 14,2 14 8 29 16 W 1022,9 14 0,0
23.10.2018 22:00:00 14,6 11,4 14,4 12,8 13,1 14,2 11 6 36 19 W 1022,8 15 0,0
23.10.2018 21:00:00 14,5 11,0 14,2 12,8 13,1 14,2 14 8 32 18 W 1023,0 15 0,0
23.10.2018 20:00:00 14,1 10,5 13,8 12,8 13,0 14,2 14 8 29 16 W 1023,1 16 0,0
23.10.2018 19:00:00 13,9 9,9 13,7 12,7 13,0 14,3 14 8 29 16 WNW 1023,2 15 0,0
23.10.2018 18:00:00 13,8 9,6 13,5 12,7 13,0 14,3 18 10 36 19 WNW 1023,1 16 0,0
23.10.2018 17:00:00 13,6 9,6 13,5 12,6 12,9 14,3 22 12 43 23 WNW 1022,6 14 0,0
23.10.2018 16:00:00 13,5 9,4 13,4 12,6 12,9 14,3 22 12 36 19 W 1022,9 16 0,0
23.10.2018 15:00:00 13,3 9,3 13,3 12,4 12,8 14,3 22 12 43 23 W 1023,6 15 0,0
23.10.2018 14:00:00 13,4 9,2 13,4 12,3 12,8 14,3 22 12 43 23 W 1023,1 16 0,0
23.10.2018 13:00:00 13,2 9,5 13,3 12,1 12,8 14,3 22 12 36 19 W 1023,7 16 0,0
23.10.2018 12:00:00 13,0 9,2 13,1 11,9 12,8 14,3 18 10 40 21 W 1023,8 16 0,0
23.10.2018 11:00:00 12,5 8,8 12,6 11,7 12,8 14,3 18 10 32 18 W 1024,6 17 0,0
23.10.2018 10:00:00 12,1 8,2 12,0 11,6 12,8 14,3 18 10 32 18 W 1025,1 18 0,0
23.10.2018 09:00:00 11,8 8,0 11,5 11,5 12,8 14,3 14 8 29 16 W 1025,4 21 0,0
23.10.2018 08:00:00 11,5 7,8 11,2 11,4 12,8 14,3 18 10 32 18 W 1025,7 21 0,0
23.10.2018 07:00:00 11,4 8,0 11,0 11,4 12,9 14,3 18 10 36 19 W 1026,0 20 0,0
23.10.2018 06:00:00 10,6 7,1 9,4 11,3 12,9 14,3 11 6 22 12 WSW 1026,6 27 0,0
23.10.2018 05:00:00 9,6 5,9 9,0 11,3 13,0 14,3 14 8 25 14 WSW 1027,9 34 0,0
23.10.2018 04:00:00 9,4 5,0 8,9 11,3 13,1 14,3 14 8 25 14 WSW 1029,3 45 0,0
23.10.2018 03:00:00 9,1 4,8 7,9 11,4 13,2 14,3 14 8 25 14 SW 1029,6 44 0,0
23.10.2018 02:00:00 7,9 4,6 6,4 11,5 13,3 14,3 14 8 22 12 SW 1031,5 36 0,0
23.10.2018 01:00:00 7,0 4,5 4,3 11,8 13,4 14,3 7 4 14 8 WSW 1032,7 30 0,0
23.10.2018 00:00:00 3,6 3,2 0,5 12,1 13,5 14,3 7 4 11 6 SW 1033,3 31 0,0
22.10.2018 23:00:00 4,0 3,8 1,2 12,4 13,6 14,3 7 4 11 6 WSW 1034,1 16 0,0
22.10.2018 22:00:00 4,7 4,4 2,4 12,7 13,7 14,3 7 4 7 4 SW 1033,7 27 0,0
22.10.2018 21:00:00 4,1 3,6 1,5 13,1 13,7 14,3 4 2 7 4 W 1034,0 29 0,0
22.10.2018 20:00:00 5,9 4,6 3,0 13,5 13,8 14,3 4 2 7 4 NW 1034,4 41 0,0
22.10.2018 19:00:00 8,5 5,2 6,6 13,8 13,7 14,3 4 2 7 4 NW 1034,1 42 0,0
22.10.2018 18:00:00 12,1 4,7 11,4 14,0 13,7 14,3 11 6 22 12 N 1034,0 41 0,0
22.10.2018 17:00:00 12,9 4,4 12,5 14,1 13,7 14,3 14 8 32 18 N 1033,9 37 0,0
22.10.2018 16:00:00 14,4 5,6 15,3 14,0 13,6 14,3 14 8 29 16 N 1033,4 31 0,0
22.10.2018 15:00:00 14,9 7,2 14,3 13,7 13,6 14,3 14 8 25 14 N 1033,3 29 0,0
22.10.2018 14:00:00 13,7 9,2 13,3 13,5 13,5 14,3 11 6 22 12 N 1033,3 26 0,0
22.10.2018 13:00:00 14,2 7,9 13,8 13,3 13,5 14,3 14 8 25 14 NNW 1033,2 32 0,0
22.10.2018 12:00:00 14,7 7,4 15,1 13,2 13,5 14,3 14 8 29 16 N 1033,0 36 0,0
22.10.2018 11:00:00 13,9 8,5 13,9 13,2 13,5 14,3 11 6 22 12 N 1032,6 37 0,0
22.10.2018 10:00:00 12,8 9,6 12,2 13,2 13,5 14,3 11 6 25 14 NNW 1031,8 39 0,0
22.10.2018 09:00:00 11,8 11,0 11,6 13,2 13,5 14,3 11 6 22 12 NNW 1030,9 29 0,2
22.10.2018 08:00:00 12,4 10,8 12,1 13,2 13,5 14,3 11 6 32 18 NNW 1029,8 14 0,0
22.10.2018 07:00:00 12,6 11,2 12,4 13,2 13,5 14,3 11 6 22 12 N 1029,0 35 0,0
22.10.2018 06:00:00 12,7 11,7 12,5 13,2 13,5 14,3 14 8 29 16 N 1028,5 39 0,0
22.10.2018 05:00:00 13,3 12,1 13,1 13,2 13,5 14,3 14 8 29 16 N 1027,8 28 0,0
22.10.2018 04:00:00 13,0 12,6 12,9 13,2 13,5 14,3 11 6 22 12 N 1027,3 3,3 0,0
22.10.2018 03:00:00 13,0 11,1 12,2 13,2 13,5 14,4 4 2 11 6 WNW 1026,9 8 0,0
22.10.2018 02:00:00 12,5 10,0 10,5 13,3 13,5 14,4 7 4 11 6 W 1026,8 9 0,0
22.10.2018 01:00:00 12,6 9,7 11,7 13,4 13,5 14,4 4 2 7 4 SW 1026,7 10 0,0
22.10.2018 00:00:00 13,3 9,5 12,2 13,4 13,5 14,4 7 4 11 6 SSW 1026,7 11 0,0
21.10.2018 23:00:00 13,1 10,1 12,3 13,5 13,5 14,4 4 2 7 4 SSW 1026,5 12 0,0
21.10.2018 22:00:00 13,8 9,4 12,6 13,6 13,5 14,4 7 4 11 6 SW 1026,4 14 0,0
21.10.2018 21:00:00 12,7 10,3 11,9 13,7 13,4 14,4 4 2 7 4 SW 1026,5 12 0,0
21.10.2018 20:00:00 14,3 9,3 13,5 13,7 13,4 14,4 7 4 11 6 SSW 1026,3 15 0,0
21.10.2018 19:00:00 14,8 9,3 14,4 13,8 13,3 14,4 7 4 14 8 SSW 1026,2 19 0,0
21.10.2018 18:00:00 15,4 8,8 15,3 13,7 13,2 14,4 7 4 14 8 SSW 1026,4 20 0,0
21.10.2018 17:00:00 15,8 8,7 16,0 13,6 13,1 14,4 11 6 18 10 SSW 1026,6 24 0,0
21.10.2018 16:00:00 16,0 8,8 16,9 13,3 13,0 14,4 7 4 18 10 SSW 1027,1 21 0,0
21.10.2018 15:00:00 15,8 8,2 16,6 13,0 12,9 14,4 14 8 18 10 SSW 1027,5 21 0,0
21.10.2018 14:00:00 15,2 8,0 15,5 12,6 12,9 14,4 14 8 22 12 SSW 1028,0 20 0,0
21.10.2018 13:00:00 14,2 8,1 14,8 12,3 12,8 14,4 11 6 22 12 SSW 1028,7 16 0,0
21.10.2018 12:00:00 13,0 8,4 13,5 12,0 12,8 14,4 7 4 18 10 SSW 1029,3 14 0,0
21.10.2018 11:00:00 11,6 8,2 12,1 11,8 12,8 14,4 11 6 14 8 S 1029,4 13 0,0
21.10.2018 10:00:00 11,3 8,3 11,8 11,7 12,8 14,4 7 4 14 8 S 1029,2 13 0,0
21.10.2018 09:00:00 9,6 7,7 8,6 11,7 12,8 14,4 7 4 11 6 SSW 1029,0 11 0,0
21.10.2018 08:00:00 9,0 8,1 8,6 11,6 12,9 14,4 4 2 7 4 SSW 1028,9 8 0,0
21.10.2018 07:00:00 8,5 8,4 8,4 11,6 12,9 14,5 4 2 7 4 S 1029,1 6 0,0
21.10.2018 06:00:00 8,2 7,9 8,0 11,6 13,0 14,5 4 2 7 4 SSE 1029,4 6 0,0
21.10.2018 05:00:00 8,0 7,7 7,3 11,6 13,0 14,5 7 4 11 6 SSE 1029,5 4,8 0,0
21.10.2018 04:00:00 6,3 6,2 4,5 11,7 13,1 14,5 4 2 4 2 S 1029,7 0,2 0,0
21.10.2018 03:00:00 7,2 7,2 5,9 11,9 13,1 14,5 4 2 7 4 S 1030,0 3,8 0,0
21.10.2018 02:00:00 6,2 6,1 4,0 12,1 13,2 14,5 4 2 7 4 S 1030,3 0,1 0,0
21.10.2018 01:00:00 6,1 6,1 4,0 12,3 13,2 14,5 4 2 4 2 SSE 1030,7 0,1 0,0
21.10.2018 00:00:00 6,6 6,5 4,6 12,5 13,3 14,5 4 2 4 2 SSW 1030,9 0,2 0,0
20.10.2018 23:00:00 7,9 7,5 5,7 12,8 13,3 14,5 4 2 4 2 SW 1031,0 0,3 0,0
20.10.2018 22:00:00 9,8 9,1 8,4 12,9 13,3 14,5 4 2 4 2 W 1031,0 12 0,0
20.10.2018 21:00:00 9,9 9,2 8,2 13,1 13,2 14,5 4 2 7 4 NW 1031,4 17 0,0
20.10.2018 20:00:00 10,9 9,6 9,8 13,2 13,2 14,5 0 0 4 2 N 1030,8 18 0,0
20.10.2018 19:00:00 12,3 9,9 11,5 13,2 13,1 14,5 4 2 7 4 NW 1030,7 29 0,0
20.10.2018 18:00:00 14,3 9,0 13,9 13,2 13,0 14,5 4 2 7 4 WNW 1030,8 36 0,0
20.10.2018 17:00:00 14,7 9,0 14,8 13,0 12,9 14,5 4 2 11 6 NW 1030,8 31 0,0
20.10.2018 16:00:00 14,7 8,3 14,9 12,7 12,8 14,5 7 4 14 8 WNW 1031,2 41 0,0
20.10.2018 15:00:00 14,9 8,2 15,4 12,4 12,7 14,5 7 4 14 8 W 1031,2 37 0,0
20.10.2018 14:00:00 15,2 8,0 16,3 11,9 12,6 14,5 7 4 14 8 WSW 1031,4 36 0,0
20.10.2018 13:00:00 14,5 7,3 15,3 11,4 12,6 14,5 7 4 11 6 WSW 1032,1 34 0,0
20.10.2018 12:00:00 13,3 7,0 14,1 11,0 12,6 14,5 7 4 7 4 WSW 1031,7 34 0,0
20.10.2018 11:00:00 11,8 8,6 12,2 10,6 12,6 14,5 7 4 11 6 SSW 1031,4 21 0,0
20.10.2018 10:00:00 8,4 8,2 8,3 10,5 12,7 14,6 0 0 4 2 N 1031,1 1,8 0,0
20.10.2018 09:00:00 3,8 3,7 2,1 10,5 12,8 14,6 0 0 4 2 N 1030,6 0,2 0,0
20.10.2018 08:00:00 2,2 2,0 0,4 10,6 12,9 14,6 0 0 4 2 N 1030,2 0,7 0,0
20.10.2018 07:00:00 2,0 2,0 0,1 10,8 13,0 14,6 0 0 4 2 N 1029,9 0,5 0,0
20.10.2018 06:00:00 1,8 1,6 -0,3 11,0 13,1 14,6 0 0 4 2 N 1029,4 0,3 0,0
20.10.2018 05:00:00 2,1 2,0 -0,1 11,2 13,2 14,6 0 0 4 2 N 1028,8 0,4 0,0
20.10.2018 04:00:00 1,9 1,7 -0,5 11,4 13,3 14,6 4 2 4 2 NW 1028,6 0,7 0,0
20.10.2018 03:00:00 2,2 2,0 -0,1 11,7 13,4 14,6 0 0 4 2 N 1028,7 0,1 0,0
20.10.2018 02:00:00 2,8 2,5 0,2 12,0 13,5 14,6 4 2 7 4 NNW 1028,6 0,1 0,0
20.10.2018 01:00:00 3,4 3,2 1,4 12,3 13,6 14,6 0 0 4 2 N 1027,7 0,3 0,0
20.10.2018 00:00:00 4,4 4,1 1,9 12,6 13,7 14,6 0 0 4 2 N 1027,8 0,8 0,0
19.10.2018 23:00:00 6,4 5,9 4,2 12,8 13,7 14,6 0 0 4 2 N 1027,6 3,8 0,0
19.10.2018 22:00:00 8,5 7,8 7,8 13,0 13,8 14,6 4 2 11 6 N 1027,7 21 0,0
19.10.2018 21:00:00 6,7 5,9 4,4 13,4 13,8 14,6 0 0 7 4 N 1026,7 13 0,0
19.10.2018 20:00:00 9,5 7,5 6,8 13,7 13,8 14,6 7 4 11 6 N 1026,4 31 0,0
19.10.2018 19:00:00 11,4 7,7 10,3 13,9 13,7 14,6 7 4 14 8 NNW 1025,8 37 0,0
19.10.2018 18:00:00 13,5 7,6 12,6 14,0 13,7 14,6 7 4 14 8 NNE 1025,0 32 0,0
19.10.2018 17:00:00 14,9 7,4 15,3 14,1 13,6 14,6 7 4 14 8 NNE 1024,9 20 0,0
19.10.2018 16:00:00 15,0 7,4 16,3 13,9 13,5 14,6 7 4 14 8 NNE 1024,8 32 0,0
19.10.2018 15:00:00 15,3 7,5 16,8 13,4 13,4 14,6 7 4 14 8 NE 1025,2 33 0,0
19.10.2018 14:00:00 14,9 7,4 16,8 12,9 13,3 14,6 7 4 14 8 NE 1025,3 24 0,0
19.10.2018 13:00:00 14,0 7,3 16,1 12,3 13,3 14,6 7 4 18 10 E 1025,7 33 0,0
19.10.2018 12:00:00 12,8 7,8 13,8 11,9 13,3 14,6 11 6 18 10 E 1025,9 26 0,0
19.10.2018 11:00:00 10,3 7,3 11,0 11,7 13,4 14,6 7 4 11 6 ENE 1026,1 24 0,0
19.10.2018 10:00:00 8,3 6,4 8,5 11,7 13,4 14,6 7 4 14 8 ENE 1026,1 22 0,0
19.10.2018 09:00:00 6,9 5,9 6,0 11,8 13,5 14,6 7 4 14 8 NNE 1025,9 24 0,0
19.10.2018 08:00:00 6,4 5,4 4,4 11,9 13,6 14,6 4 2 11 6 NE 1025,8 25 0,0
19.10.2018 07:00:00 7,4 5,6 6,7 12,0 13,6 14,6 18 10 25 14 NE 1025,6 38 0,0
19.10.2018 06:00:00 6,9 5,5 5,9 12,1 13,7 14,6 7 4 14 8 NE 1025,6 32 0,0
19.10.2018 05:00:00 7,2 5,7 6,2 12,1 13,8 14,6 11 6 18 10 NE 1025,8 39 0,0
19.10.2018 04:00:00 7,8 6,1 6,9 12,2 13,9 14,6 7 4 14 8 NNE 1025,9 41 0,0
19.10.2018 03:00:00 5,8 5,4 3,5 12,5 14,0 14,6 7 4 7 4 NE 1026,0 23 0,0
19.10.2018 02:00:00 7,3 6,1 4,8 12,7 14,1 14,6 7 4 11 6 NE 1026,1 41 0,0
19.10.2018 01:00:00 8,1 6,4 5,7 13,0 14,2 14,6 7 4 11 6 NE 1026,3 41 0,0
19.10.2018 00:00:00 8,5 6,6 6,8 13,3 14,3 14,6 7 4 14 8 ENE 1026,4 43 0,0
18.10.2018 23:00:00 8,3 6,9 5,6 13,6 14,4 14,6 7 4 11 6 NE 1026,4 40 0,0
18.10.2018 22:00:00 10,4 7,7 8,6 13,9 14,4 14,6 11 6 14 8 NNE 1026,3 46 0,0
18.10.2018 21:00:00 11,1 8,4 9,3 14,2 14,4 14,6 11 6 14 8 NE 1026,0 47 0,0
18.10.2018 20:00:00 10,2 8,4 8,5 14,5 14,5 14,6 7 4 11 6 N 1025,5 44 0,0
18.10.2018 19:00:00 13,1 8,3 11,8 14,8 14,4 14,6 11 6 14 8 N 1025,4 48 0,0
18.10.2018 18:00:00 14,7 8,3 13,7 14,9 14,4 14,6 7 4 14 8 NNE 1024,9 48 0,0
18.10.2018 17:00:00 15,0 8,2 15,4 15,0 14,3 14,6 11 6 22 12 NE 1025,0 43 0,0
18.10.2018 16:00:00 15,1 8,1 15,9 14,9 14,2 14,6 14 8 25 14 NNE 1025,2 38 0,0
18.10.2018 15:00:00 14,9 7,7 15,3 14,6 14,1 14,6 18 10 29 16 NNE 1025,3 42 0,0
18.10.2018 14:00:00 15,3 8,6 16,0 14,3 14,1 14,6 18 10 29 16 N 1025,3 42 0,0
18.10.2018 13:00:00 15,0 9,1 16,0 13,9 14,0 14,6 18 10 29 16 NNE 1025,5 33 0,0
18.10.2018 12:00:00 15,0 10,1 15,9 13,5 14,0 14,6 18 10 29 16 NE 1025,6 37 0,0
18.10.2018 11:00:00 14,6 10,9 15,2 13,3 14,0 14,6 14 8 29 16 NE 1025,2 23 0,0
18.10.2018 10:00:00 13,8 11,1 13,8 13,3 14,0 14,7 11 6 18 10 NNE 1024,9 20 0,0
18.10.2018 09:00:00 12,5 11,2 11,5 13,3 14,1 14,7 7 4 11 6 NNE 1024,4 19 0,0
18.10.2018 08:00:00 13,1 11,7 12,5 13,3 14,1 14,7 7 4 11 6 N 1023,9 20 0,0
18.10.2018 07:00:00 12,9 12,2 12,5 13,2 14,1 14,7 7 4 11 6 N 1023,4 16 0,0

tt = Température de l'air
td = dewpoint
tt 5cm = Température de l'air 5cm
tt -5cm = Température de l'air -5cm
tt -20cm = Température de l'air -20cm
tt -100cm = Température de l'air -100cm
ff = Vitesse du vent
fx = gusts
dd = Direction du vent
ppp = reduced air pressure
vv = visibility
rr = Quantités de précipitations

stations d'obs. à proximité